This is the latest recevied weather packets stored in our database for station/object N3LF. If no packets are shown the sender has not sent any weather packets the latest 10 day(s).
| Time | Temp. | Humidity | Pressure | Rain* | Wind** | Luminosity | Snow |
|---|---|---|---|---|---|---|---|
| 1777583892 | 18.33° C | 41% | 1017.8 hPa | 0 mm | - | 312 W/m² | - |
| 1777583589 | 18.89° C | 39% | 1018 hPa | 0 mm | - | 339 W/m² | - |
| 1777583287 | 17.78° C | 39% | 1018.1 hPa | 0 mm | - | 347 W/m² | - |
| 1777582982 | 18.33° C | 40% | 1018.1 hPa | 0 mm | - | 429 W/m² | - |
| 1777582680 | 18.33° C | 41% | 1018.1 hPa | 0 mm | - | 397 W/m² | - |
| 1777582380 | 17.78° C | 38% | 1018.3 hPa | 0 mm | - | 472 W/m² | - |
| 1777582078 | 18.89° C | 41% | 1018.2 hPa | 0 mm | - | 467 W/m² | - |
| 1777581773 | 17.78° C | 40% | 1018.5 hPa | 0 mm | - | 368 W/m² | - |
| 1777581472 | 17.78° C | 41% | 1018.4 hPa | 0 mm | - | 433 W/m² | - |
| 1777581168 | 18.33° C | 41% | 1018.3 hPa | 0 mm | - | 405 W/m² | - |
| 1777580868 | 18.89° C | 39% | 1018.4 hPa | 0 mm | - | 478 W/m² | - |
| 1777580563 | 18.33° C | 36% | 1018.6 hPa | 0 mm | - | 407 W/m² | - |
| 1777580258 | 18.33° C | 38% | 1018.6 hPa | 0 mm | - | 505 W/m² | - |
| 1777579956 | 18.33° C | 40% | 1018.7 hPa | 0 mm | - | 550 W/m² | - |
| 1777579651 | 18.33° C | 39% | 1018.6 hPa | 0 mm | - | 615 W/m² | - |
| 1777579350 | 18.33° C | 37% | 1018.7 hPa | 0 mm | - | 563 W/m² | - |
| 1777579045 | 18.33° C | 40% | 1018.8 hPa | 0 mm | - | 557 W/m² | - |
| 1777578741 | 17.78° C | 40% | 1018.8 hPa | 0 mm | - | 575 W/m² | - |
| 1777578441 | 17.78° C | 39% | 1018.9 hPa | 0 mm | - | 618 W/m² | - |
| 1777578136 | 18.89° C | 40% | 1019 hPa | 0 mm | - | 679 W/m² | - |
| 1777577832 | 18.33° C | 38% | 1019 hPa | 0 mm | - | 550 W/m² | - |
| 1777577528 | 17.78° C | 36% | 1019.2 hPa | 0 mm | - | 654 W/m² | - |
| 1777577225 | 17.78° C | 38% | 1019.1 hPa | 0 mm | - | 523 W/m² | - |
| 1777576921 | 17.78° C | 41% | 1019.3 hPa | 0 mm | - | 664 W/m² | - |
| 1777576616 | 18.33° C | 41% | 1019.5 hPa | 0 mm | - | 661 W/m² | - |
* Rain latest hour (hover to see other rain measurements)
** Current wind speed in m/s (hover to see current wind gust speed)